Погода в Чикаго

США     41°52′32″N   87°37′25″W
темп.,
°C
ветер,
м/с
пор.,
м/с
влажн.,
%
обл.,
%
осадки,
мм/ч
давл.,
гПа
погр.,
м
19 апреля, пн
пн1901:00+8юз567326 0.5 100936
04:00+8юз796790 0.0 100969
07:00+7з6775100 0.0 101066
10:00+7сз6987100 0.4 1010117
13:00+6з6882100 1.9 1011122
16:00+6з6871100 1.6 1013165
19:00+6сз6859100 1.6 1014124
22:00+6сз6859100 0.0 1016221
20 апреля, вт
вт2001:00+5сз6766100 0.0 1017774
04:00+4ссз6668100 0.0 1017534
07:00+3ссз5567100 0.0 1019794
10:00+3с5556100 0.0 1020882
13:00+2св4457100 0.0 1020704
16:00+3всв4454100 0.0 1018682
19:00+3ссв1251100 0.1 1019752
22:00+3з235896 0.0 1019432
21 апреля, ср
ср2101:00+3зсз337081 0.1 1018520
04:00+3с2265100 0.4 1018727
07:00+2ссз1168100 0.6 1019232
10:00+2св3271100 0.5 1021593
13:00+2всв2273100 0.7 1021325
16:00+3всв326564 0.2 1020215
19:00+5ссз24593 0.4 1018117
22:00+5з57572 0.1 1019209
22 апреля, чт
чт2201:00+4зсз57580 0.1 1020361
04:00+3зсз79580 0.0 1020427
07:00+2зсз79600 0.0 1021397
10:00+4сз57490 0.0 1022769
13:00+6в11510 0.0 102241
16:00+6юв33535 0.0 102072
19:00+9з44515 0.0 101922
22:00+7зюз55570 0.0 102139
23 апреля, пт
пт2301:00+6юз56620 0.0 102058
04:00+6юз5868100 0.0 1020127
07:00+6юз587190 0.0 1020134
10:00+8юз556353 0.0 102039
13:00+9ю446174 0.0 101820
16:00+10юз556278 0.0 101629
19:00+9юз6672100 0.0 101645
22:00+8ююз4481100 0.0 101633